Terug naar catalogus

IRIDE-MS2-HEO-13

ActiefWetenschapSSO
NORAD 68985·PAYLOAD·🇮🇹 Italy

Gelanceerd May 3, 2026 vanaf Vandenberg Space Force Base

Loading…

Volgende Passages (komende 24 uur)

TLE

VersSource: Space-Track

Epoch: Sep 14, 2026, 16:36 UTC

1 68985U 26100F   26257.69177150  .00002083  00000-0  21273-3 0  9994
2 68985  97.7241 153.4210 0002678 145.7474 214.3918 14.91667305 20045

Volg IRIDE-MS2-HEO-13 in realtime met AllMySat

Download on the App Store